• In Deutschland
  • Länderverzeichnis
  • Für 7 Tage
  • Wassertemperatur
  • Satellitenkarten
  • Wetterkarte
  • Widgets
  • user-avatar
    Anmelden

    Stündliche Wetter Satif

    Heute, 19 Juni, Dienstag

    Zeit Temperatur Niederschläge Wind Luftdruck Luftfeuchtigkeit
    00:00 +16°C° 0 mm 2 m/S 674 mmHg 67%
    01:00 +16°C° 0 mm 2 m/S 674 mmHg 68%
    02:00 +15°C° 0 mm 2 m/S 673 mmHg 70%
    03:00 +15°C° 0 mm 2 m/S 673 mmHg 71%
    04:00 +15°C° 0 mm 2 m/S 673 mmHg 70%
    05:00 +15°C° 0 mm 2 m/S 674 mmHg 69%
    06:00 +15°C° 0 mm 2 m/S 674 mmHg 68%
    07:00 +17°C° 0 mm 2 m/S 674 mmHg 62%
    08:00 +18°C° 0 mm 3 m/S 675 mmHg 56%
    09:00 +20°C° 0 mm 3 m/S 675 mmHg 49%
    10:00 +21°C° 0 mm 3 m/S 675 mmHg 45%
    11:00 +22°C° 0 mm 4 m/S 676 mmHg 41%
    12:00 +25°C° 0 mm 4 m/S 676 mmHg 37%
    13:00 +25°C° 0 mm 4 m/S 676 mmHg 37%
    14:00 +25°C° 0 mm 4 m/S 675 mmHg 37%
    15:00 +26°C° 0 mm 5 m/S 675 mmHg 37%
    16:00 +25°C° 0 mm 5 m/S 675 mmHg 41%
    17:00 +23°C° 0 mm 5 m/S 675 mmHg 46%
    18:00 +22°C° 0 mm 5 m/S 675 mmHg 50%
    19:00 +21°C° 0 mm 4 m/S 675 mmHg 56%
    20:00 +20°C° 0 mm 3 m/S 675 mmHg 62%
    21:00 +19°C° 0 mm 3 m/S 675 mmHg 67%
    22:00 +18°C° 0 mm 2 m/S 675 mmHg 69%
    23:00 +18°C° 0 mm 2 m/S 675 mmHg 70%

    Morgen, 20 Juni, Mittwoch

    Zeit Temperatur Niederschläge Wind Luftdruck Luftfeuchtigkeit
    00:00 +18°C° 0 mm 1 m/S 674 mmHg 71%
    01:00 +18°C° 0 mm 1 m/S 674 mmHg 71%
    02:00 +18°C° 0 mm 1 m/S 674 mmHg 71%
    03:00 +16°C° 0 mm 1 m/S 674 mmHg 71%
    04:00 +18°C° 0 mm 1 m/S 674 mmHg 67%
    05:00 +18°C° 0 mm 1 m/S 674 mmHg 63%
    06:00 +19°C° 0 mm 1 m/S 675 mmHg 58%
    07:00 +20°C° 0 mm 1 m/S 675 mmHg 51%
    08:00 +22°C° 0 mm 1 m/S 676 mmHg 44%
    09:00 +23°C° 0 mm 1 m/S 676 mmHg 37%
    10:00 +24°C° 0 mm 1 m/S 676 mmHg 34%
    11:00 +25°C° 0 mm 1 m/S 676 mmHg 32%
    12:00 +26°C° 0 mm 2 m/S 676 mmHg 29%
    13:00 +27°C° 0 mm 2 m/S 676 mmHg 29%
    14:00 +27°C° 0 mm 2 m/S 676 mmHg 29%
    15:00 +27°C° 0 mm 2 m/S 676 mmHg 29%
    16:00 +27°C° 0 mm 2 m/S 675 mmHg 32%
    17:00 +26°C° 0 mm 3 m/S 675 mmHg 35%
    18:00 +26°C° 0 mm 3 m/S 675 mmHg 39%
    19:00 +25°C° 0 mm 3 m/S 675 mmHg 45%
    20:00 +23°C° 0 mm 2 m/S 675 mmHg 51%
    21:00 +21°C° 0 mm 2 m/S 675 mmHg 58%
    22:00 +21°C° 0 mm 2 m/S 675 mmHg 60%
    23:00 +21°C° 0 mm 2 m/S 675 mmHg 61%

    übermorgen, 21 Juni, Donnerstag

    Zeit Temperatur Niederschläge Wind Luftdruck Luftfeuchtigkeit
    00:00 +20°C° 0 mm 2 m/S 674 mmHg 63%
    01:00 +21°C° 0 mm 1 m/S 674 mmHg 63%
    02:00 +21°C° 0 mm 1 m/S 674 mmHg 64%
    03:00 +20°C° 0 mm 1 m/S 674 mmHg 64%
    04:00 +21°C° 0 mm 1 m/S 674 mmHg 60%
    05:00 +21°C° 0 mm 2 m/S 674 mmHg 56%
    06:00 +21°C° 0 mm 2 m/S 674 mmHg 52%
    07:00 +24°C° 0 mm 3 m/S 675 mmHg 47%
    08:00 +25°C° 0 mm 3 m/S 675 mmHg 41%
    09:00 +27°C° 0 mm 4 m/S 675 mmHg 36%
    10:00 +27°C° 0 mm 4 m/S 675 mmHg 35%
    11:00 +28°C° 0 mm 4 m/S 675 mmHg 33%
    12:00 +29°C° 0 mm 5 m/S 675 mmHg 32%
    13:00 +29°C° 0 mm 4 m/S 675 mmHg 32%
    14:00 +28°C° 0 mm 4 m/S 675 mmHg 32%
    15:00 +28°C° 0 mm 4 m/S 674 mmHg 33%
    16:00 +28°C° 0 mm 3 m/S 674 mmHg 35%
    17:00 +28°C° 0 mm 3 m/S 674 mmHg 37%
    18:00 +27°C° 0 mm 2 m/S 674 mmHg 39%
    19:00 +26°C° 0 mm 2 m/S 674 mmHg 45%
    20:00 +24°C° 0 mm 2 m/S 674 mmHg 51%
    21:00 +23°C° 0 mm 2 m/S 674 mmHg 56%
    22:00 +23°C° 0 mm 1 m/S 674 mmHg 59%
    23:00 +22°C° 0 mm 1 m/S 674 mmHg 61%

    22 Juni, Freitag

    Zeit Temperatur Niederschläge Wind Luftdruck Luftfeuchtigkeit
    00:00 +22°C° 0 mm 1 m/S 673 mmHg 63%
    01:00 +21°C° 0 mm 1 m/S 673 mmHg 64%
    02:00 +21°C° 0 mm 1 m/S 673 mmHg 65%
    03:00 +21°C° 0 mm 1 m/S 672 mmHg 65%
    04:00 +21°C° 0 mm 1 m/S 673 mmHg 61%
    05:00 +22°C° 0 mm 1 m/S 673 mmHg 57%
    06:00 +23°C° 0 mm 2 m/S 673 mmHg 53%
    07:00 +24°C° 0 mm 2 m/S 674 mmHg 47%
    08:00 +26°C° 0 mm 3 m/S 674 mmHg 41%
    09:00 +27°C° 0 mm 3 m/S 675 mmHg 35%
    10:00 +28°C° 0 mm 3 m/S 675 mmHg 33%
    11:00 +29°C° 0 mm 3 m/S 675 mmHg 32%
    12:00 +29°C° 0 mm 3 m/S 675 mmHg 30%
    13:00 +30°C° 0 mm 3 m/S 674 mmHg 30%
    14:00 +30°C° 0 mm 3 m/S 674 mmHg 30%
    15:00 +30°C° 0 mm 3 m/S 674 mmHg 31%
    16:00 +29°C° 0 mm 4 m/S 674 mmHg 34%
    17:00 +28°C° 0 mm 4 m/S 673 mmHg 38%
    18:00 +27°C° 0 mm 4 m/S 673 mmHg 41%
    19:00 +26°C° 0 mm 3 m/S 673 mmHg 46%
    20:00 +25°C° 0 mm 3 m/S 674 mmHg 50%
    21:00 +23°C° 0 mm 2 m/S 674 mmHg 55%
    22:00 +23°C° 0 mm 2 m/S 674 mmHg 56%
    23:00 +22°C° 0 mm 1 m/S 674 mmHg 57%

    23 Juni, Samstag

    Zeit Temperatur Niederschläge Wind Luftdruck Luftfeuchtigkeit
    00:00 +22°C° 0 mm 1 m/S 673 mmHg 58%
    01:00 +22°C° 0 mm 1 m/S 673 mmHg 57%
    02:00 +22°C° 0 mm 1 m/S 672 mmHg 57%
    03:00 +20°C° 0 mm 2 m/S 672 mmHg 56%
    04:00 +22°C° 0 mm 1 m/S 672 mmHg 54%
    05:00 +22°C° 0 mm 1 m/S 673 mmHg 52%
    06:00 +23°C° 0 mm 1 m/S 673 mmHg 49%
    07:00 +25°C° 0 mm 1 m/S 674 mmHg 44%
    08:00 +26°C° 0 mm 1 m/S 674 mmHg 39%
    09:00 +28°C° 0 mm 2 m/S 675 mmHg 34%
    10:00 +29°C° 0 mm 2 m/S 675 mmHg 31%
    11:00 +30°C° 0 mm 2 m/S 675 mmHg 28%
    12:00 +31°C° 0 mm 3 m/S 675 mmHg 25%
    13:00 +33°C° 0 mm 3 m/S 675 mmHg 25%
    14:00 +33°C° 0 mm 3 m/S 675 mmHg 25%
    15:00 +33°C° 0 mm 4 m/S 675 mmHg 25%
    16:00 +32°C° 0,1 mm 4 m/S 675 mmHg 28%
    17:00 +30°C° 0,1 mm 4 m/S 674 mmHg 32%
    18:00 +29°C° 0,1 mm 4 m/S 674 mmHg 35%
    19:00 +28°C° 0,1 mm 3 m/S 674 mmHg 38%
    20:00 +27°C° 0,1 mm 2 m/S 675 mmHg 41%
    21:00 +26°C° 0,1 mm 2 m/S 675 mmHg 44%
    22:00 +26°C° 0,1 mm 2 m/S 674 mmHg 43%
    23:00 +26°C° 0,1 mm 3 m/S 674 mmHg 43%

    24 Juni, Sonntag

    Zeit Temperatur Niederschläge Wind Luftdruck Luftfeuchtigkeit
    00:00 +26°C° 0,1 mm 3 m/S 674 mmHg 43%
    01:00 +26°C° 0 mm 2 m/S 673 mmHg 43%
    02:00 +25°C° 0 mm 2 m/S 673 mmHg 44%
    03:00 +25°C° 0 mm 2 m/S 672 mmHg 45%
    04:00 +26°C° 0 mm 2 m/S 673 mmHg 44%
    05:00 +26°C° 0 mm 2 m/S 673 mmHg 42%
    06:00 +26°C° 0 mm 2 m/S 673 mmHg 41%
    07:00 +28°C° 0 mm 3 m/S 674 mmHg 35%
    08:00 +30°C° 0 mm 4 m/S 674 mmHg 30%
    09:00 +33°C° 0 mm 5 m/S 675 mmHg 25%
    10:00 +34°C° 0 mm 6 m/S 674 mmHg 24%
    11:00 +35°C° 0 mm 7 m/S 674 mmHg 22%
    12:00 +36°C° 0 mm 7 m/S 674 mmHg 21%
    13:00 +36°C° 0 mm 7 m/S 674 mmHg 20%
    14:00 +35°C° 0 mm 6 m/S 673 mmHg 20%
    15:00 +35°C° 0 mm 5 m/S 673 mmHg 20%
    16:00 +34°C° 0,2 mm 5 m/S 672 mmHg 23%
    17:00 +33°C° 0,2 mm 5 m/S 672 mmHg 27%
    18:00 +32°C° 0,2 mm 5 m/S 671 mmHg 30%
    19:00 +30°C° 0,1 mm 4 m/S 671 mmHg 34%
    20:00 +28°C° 0,1 mm 3 m/S 671 mmHg 38%
    21:00 +27°C° 0,1 mm 2 m/S 671 mmHg 43%
    22:00 +27°C° 0 mm 2 m/S 671 mmHg 44%
    23:00 +26°C° 0 mm 2 m/S 671 mmHg 45%
    Mehr zeigen